Voltar ao catálogo

STARLINK-35254

AtivoComunicaçõesSSO
NORAD 65674·PAYLOAD·🇺🇸 United States

Lançado Sep 19, 2025 de Vandenberg Space Force Base

Loading…

Próximas Passagens (próximas 24 horas)

TLE

AtualizadoSource: CelesTrak SupGP

Época: Sep 14, 2026, 22:36 UTC

1 65674C 25211Y   26257.94215278  .00047904  00000+0  14872-2 0  2573
2 65674  97.2836 298.2094 0001122  91.8102  75.1035 15.33411297    14

Acompanhe STARLINK-35254 em tempo real com AllMySat

Download on the App Store